Weather Roundup
Issued by NWS Chicago, IL

Home | Current Version | Previous Version | Text Only | Print | Product List | Glossary Off
Versions: 1 2 3 4 5 6 7 8 9 10 11 12 13 14 15 16 17 18 19 20 21 22 23 24 25 26 27 28 29 30 31 32 33 34 35 36 37 38 39 40 41 42 43 44 45 46 47 48 49 50

000
NZUS59 KLOT 091208
HRRLOT

CHICAGO AREA WEATHER ROUNDUP
NATIONAL WEATHER SERVICE CHICAGO/ROMEOVILLE IL
600 AM CST FRI DEC 09 2016

NOTE: "FAIR" INDICATES FEW OR NO CLOUDS BELOW 12,000 FEET WITH NO
SIGNIFICANT WEATHER AND/OR OBSTRUCTIONS TO VISIBILITY.

* THESE STATIONS ARE NOT UNDER NWS QUALITY CONTROL. THEY ALSO MAY NOT
  REPORT WEATHER SUCH AS PRECIPITATION OR FOG.

ILZ005-006-012>014-019>023-091300-
NORTHEAST ILLINOIS

CITY           SKY/WX    TMP DP  RH WIND       PRES   REMARKS
OHARE          CLOUDY    22  17  81 W10       30.47R WCI  11
6HR MIN TEMP:  20; 6HR MAX TEMP:  22;

MIDWAY         FLURRIES  23  15  71 W9        30.48R WCI  13
6HR MIN TEMP:  21; 6HR MAX TEMP:  23; 6HR PCP: TRACE;

AURORA         CLOUDY    22  17  81 W10       30.49R WCI  11
6HR MIN TEMP:  19; 6HR MAX TEMP:  22;

LANSING*       CLOUDY    22  19  86 W6        30.49R WCI  15
JOLIET*        CLOUDY    24  19  80 W6        30.51R WCI  17
WAUKEGAN       MOCLDY    22  17  81 NW9       30.44R WCI  12
6HR MIN TEMP:  20; 6HR MAX TEMP:  22;

DUPAGE AIRPORT CLOUDY    21  15  78 W10       30.47R WCI  10
6HR MIN TEMP:  19; 6HR MAX TEMP:  21;

WHEELING       CLOUDY    22  16  78 W10       30.47R WCI  11
6HR MIN TEMP:  21; 6HR MAX TEMP:  22;

KANKAKEE*      FLURRIES  22  18  81 W12       30.51S WCI  11
MORRIS*        CLOUDY    22  17  82 W9        30.51R WCI  12
LEWIS AIRPORT* CLOUDY    22  19  91 W9        30.50R WCI  11
NORTHERLY ISL    N/A     24  19  81 NW8         N/A  WCI  15
$$

WIZ051-052-058>065-066-070>072-091300-
SOUTHEAST WISCONSIN

CITY           SKY/WX    TMP DP  RH WIND       PRES   REMARKS
MILWAUKEE      CLEAR     24  15  68 W12       30.44R WCI  13
6HR MIN TEMP:  23; 6HR MAX TEMP:  24;

KENOSHA*       CLOUDY    21  16  81 NW10      30.45R WCI  10
RACINE*        CLEAR     20  14  77 NW8       30.46R WCI  10
BURLINGTON     MOCLDY    25  22  89 CALM      30.45R
WAUKESHA       CLEAR     18  14  86 W12G18    30.45R WCI   5
WEST BEND      CLEAR     19  16  86 W8        30.42R WCI   9
$$

INZ001>003-010>013-019-020-091300-
NORTHWEST INDIANA

CITY           SKY/WX    TMP DP  RH WIND       PRES   REMARKS
GARY*          CLOUDY    25  19  80 W8        30.49R WCI  16
MICHIGAN CITY* NOT AVBL
RENSSELAER*    NOT AVBL
VALPARAISO     CLOUDY    23  17  78 MISG      30.46R
$$

LMZ740>746-091300-
SOUTHERN LAKE MICHIGAN

STATION/POSITION TIME  SKY/WX   TEMP WIND        PRES    VSBY
                                AIR  DIR/SP/G
                 (UTC)          (F)  (DEG/KT/KT) (MB)    (MI)
HARRISON CRIB    1140            24  290/ 15/ 17   N/A
BURNHAM HARBOR   1200            24  270/  5/ 12   N/A
CALUMET HARBOR   1142            22  260/  7/ 13 1031.1R
BURNS HARBOR     1140            26  280/ 17/ 20 1031.5R
MICHIGAN CITY    NOT AVBL
$$

ABBREVIATIONS USED IN REMARKS
   TC - TEMPERATURE IN CELSIUS
  WCI - WIND CHILL INDEX
   HX - HEAT INDEX
  VSB - VISIBILITY
$$



USA.gov is the U.S. government's official web portal to all federal, state and local government web resources and services.